#timestamp,LO_Frequency,Hit,StdDev 
1598817615.1,286047001.8,N
1598817635.8,286047002.1,N
1598817655.7,286047001.5,N
1598817675.5,286047002.6,N
1598817695.4,286047002.1,N
1598817715.2,286047002.1,N
1598817735.0,286047001.9,N
1598817735.9,286047001.9,N
1598817755.8,286047001.7,N
1598817775.6,286047004.4,Y
1598817795.4,286047002.8,P
1598817815.3,286047000.0,N
1598817835.1,286047000.2,N
1598817855.9,286047002.4,N
1598817875.7,286047000.2,N
1598817895.5,286047002.4,N
1598817915.4,286047002.6,N
1598817935.2,286046999.7,N
1598817955.0,286047000.1,N
1598817955.9,286047000.1,N
1598817975.8,286047000.1,N
1598817995.6,286047002.6,N
1598818015.5,286046999.7,N
1598818035.3,286046999.8,N
1598818055.1,286047000.1,N
1598818075.9,286047002.6,N
1598818095.7,286046999.7,N
1598818115.5,286046999.7,N
1598818135.4,286047002.7,N
1598818155.2,286047002.8,N
1598818175.0,286047002.2,N
1598818176.0,286047002.2,N
1598818195.8,286046999.8,N
1598818215.6,286047002.4,N
1598818235.5,286047002.2,N
1598818255.3,286046999.7,N
1598818275.1,286047002.2,N
1598818295.9,286047001.5,N
1598818315.7,286047002.7,N
1598818335.6,286047001.9,N
1598818355.4,286047001.8,N
1598818375.2,286047002.1,N
1598818395.1,286047001.3,N
1598818396.0,286047001.3,N
1598818415.8,286047001.6,N
1598818435.7,286047001.9,N
1598818455.5,286047004.3,Y
1598818475.3,286047002.7,P
1598818495.2,286047002.2,P
1598818515.0,286047002.7,P
1598818515.9,286047002.7,Y
1598818535.8,286046998.3,P
1598818555.6,286046998.7,N
1598818575.4,286046998.8,N
1598818595.3,286046998.2,N
1598818615.1,286046998.7,N
1598818635.8,286046998.4,N
1598818655.7,286046999.0,N
1598818675.5,286046998.4,N
1598818695.4,286046998.1,N
1598818715.2,286047001.1,N
1598818735.0,286047000.8,N
1598818735.9,286047000.8,N
1598818755.8,286047001.1,N
1598818775.6,286047000.8,N
1598818795.5,286047001.0,N
1598818815.3,286047000.7,N
1598818835.1,286047000.9,N
1598818855.9,286046999.9,N
1598818875.7,286047000.2,N
1598818895.5,286046999.9,N
1598818915.4,286046999.9,N
1598818935.2,286046999.8,N
1598818955.1,286046999.7,N
1598818956.0,286046999.7,N
1598818975.8,286047002.7,N
1598818995.6,286047000.2,N
1598819015.5,286046999.8,N
1598819035.3,286047002.6,N
1598819055.2,286047002.5,N
1598819075.9,286046999.7,N
1598819095.7,286047002.7,N
1598819115.6,286046999.7,N
1598819135.4,286046999.7,N
1598819155.2,286047002.5,N
1598819175.1,286047002.5,N
1598819176.0,286047002.5,N
1598819195.8,286047002.4,N
1598819215.7,286047002.0,N
1598819235.5,286047002.1,N
1598819255.3,286047002.5,N
1598819275.2,286047002.4,N
1598819295.0,286047002.4,N
1598819295.9,286047002.4,N
1598819315.7,286047002.3,N
1598819335.6,286047002.0,N
1598819355.4,286047001.7,N
1598819375.3,286047001.6,N
1598819395.1,286047001.9,N
1598819396.0,286047001.9,N
1598819415.8,286047001.8,N
1598819435.7,286047002.1,N
1598819455.5,286047001.9,N
1598819475.3,286047001.6,N
1598819495.2,286047001.7,N
1598819515.0,286047002.0,N
1598819515.9,286047002.0,N
1598819535.8,286047001.4,N
1598819555.6,286047001.3,N
1598819575.4,286047004.3,Y
1598819595.3,286047002.4,P
1598819615.1,286047002.8,P
1598819635.9,286047002.5,P
1598819655.7,286047002.5,Y
1598819675.5,286046998.2,P
1598819695.4,286046998.4,N
1598819715.2,286046998.4,N
1598819735.0,286046998.9,N
1598819736.0,286046998.9,N
1598819755.8,286046998.4,N
1598819775.6,286046998.8,N
1598819795.5,286046998.4,N
1598819815.3,286046998.7,N
1598819835.1,286046998.2,N
1598819855.9,286046998.4,N
1598819875.7,286046998.6,N
1598819895.5,286047001.1,N
1598819915.4,286046998.3,N
1598819935.2,286046998.4,N
1598819955.1,286046998.6,N
1598819956.0,286046998.6,N
1598819975.8,286046998.5,N
1598819995.6,286046998.1,N
1598820015.5,286047001.1,N
1598820035.3,286047000.7,N
1598820055.1,286047000.5,N
1598820075.9,286047001.0,N
1598820095.7,286047000.7,N
1598820115.6,286047000.3,N
1598820135.4,286047001.0,N
1598820155.2,286047000.3,N
1598820175.1,286047000.0,N
1598820176.0,286047000.0,N
1598820195.8,286047000.6,N
1598820215.7,286046999.9,N
1598820235.5,286047000.6,N
1598820255.3,286046999.9,N
1598820275.2,286047002.7,N
1598820295.9,286047002.8,N
1598820315.7,286047002.7,N
1598820335.6,286047001.9,N
1598820355.4,286047002.4,N
1598820375.3,286047002.5,N
1598820395.1,286047001.6,N
1598820396.0,286047001.6,N
1598820415.8,286047002.6,N
1598820435.7,286047002.3,N
1598820455.5,286047002.5,N
1598820475.3,286047002.2,N
1598820495.2,286047002.0,N
1598820515.0,286047002.4,N
1598820515.9,286047002.4,N
1598820535.8,286047002.0,N
1598820555.6,286047001.9,N
1598820575.4,286047002.0,N
1598820595.3,286047001.7,N
1598820615.1,286047001.8,N
1598820635.8,286047001.6,N
1598820655.7,286047001.8,N
1598820675.5,286047004.1,Y
1598820695.4,286047002.5,P
1598820715.2,286047002.8,P
1598820735.0,286047002.8,P
1598820735.9,286047002.8,Y
1598820755.8,286046998.3,P
1598820775.6,286046998.4,N
1598820795.5,286046998.3,N
1598820815.3,286046998.2,N
1598820835.1,286047001.2,N
1598820855.9,286046998.2,N
1598820875.7,286046998.4,N
1598820895.6,286047001.2,N
1598820915.4,286047001.1,N
1598820935.2,286047001.2,N
1598820955.1,286047000.8,N
1598820956.0,286047000.8,N
1598820975.8,286047001.2,N
1598820995.6,286047001.1,N
1598821015.5,286047001.0,N
1598821035.3,286047001.0,N
1598821055.2,286046998.1,N
1598821075.9,286047000.5,N
1598821095.7,286047000.5,N
1598821115.6,286047000.6,N
1598821135.4,286047000.5,N
1598821155.2,286047000.0,N
1598821175.1,286047000.3,N
1598821176.0,286047000.3,N
1598821195.8,286047000.2,N
